Flag for Brazil Weather past 2 weeks in Pirassununga, São Paulo, Brazil

Now
88 °F

Sunny.


Feels Like: 86 °F
Forecast: 51 / 92 °F
Wind: 5 mph from Northwest

Location: Pirassununga Airport

Current Time: Aug 31, 2015 at 1:10:32 PM

Latest Report: Aug 31, 2015 at 12:00 PM


Visibility: 10 mi

Pressure: 30.15 "Hg (28.08 "Hg at 632m altitude)

Humidity: 33%

Dew point: 55 °F

Location of PirassunungaLocation

Historic Weather in Pirassununga — Graph

°F

Pirassununga temperature yesterday

Maximum temperature yesterday: 91 °F (at 2:00 PM)
Minimum temperature yesterday: 52 °F (at 6:00 AM)
Average temperature yesterday: 76 °F

Past Weeks' High & Low Weather Summary

 TemperatureHumidityPressure
High91 °F (Aug 23, 4:00 PM)100% (Aug 22, 7:00 AM)30.24 "Hg (Aug 22, 7:00 AM)
Low46 °F (Aug 23, 7:00 AM)14% (Aug 23, 4:00 PM)29.92 "Hg (Aug 23, 4:00 PM)
Average71 °F58%30.10 "Hg
* Reported Aug 16 11:00 AM — Aug 31 11:00 AM, Pirassununga, Weather by CustomWeather, © 2015

Note: Actual official high and low records may vary slightly from our data, if they occured in-between our weather recording intervals... More about our weather records

Advertising

Pirassununga weather history for previous 24 hours

 ConditionsComfort  
Time TempWeatherWind HumidityBarometerVisibility
11:00 AM
Mon, Aug 31
86 °FSunny.6 mph35%30.18 "Hg10 mi
10:00 AM79 °FSunny.5 mph48%30.18 "Hg10 mi
9:00 AM73 °FSunny.2 mph57%30.18 "Hg10 mi
8:00 AM63 °FSunny.2 mph83%30.18 "Hg10 mi
7:00 AM55 °FSunny.2 mph94%30.15 "Hg10 mi
6:00 AM55 °FSunny.1 mph88%30.12 "Hg10 mi
11:00 PM
Sun, Aug 30
63 °FClear.2 mph77%30.15 "Hg10 mi
10:00 PM64 °FClear.2 mph78%30.12 "Hg10 mi
9:00 PM68 °FClear.No wind69%30.12 "Hg10 mi
8:00 PM70 °FClear.No wind60%30.09 "Hg10 mi
7:00 PM75 °FClear.2 mph50%30.09 "Hg10 mi
6:00 PM86 °FClear.2 mph29%30.09 "Hg10 mi
5:00 PM91 °FClear.2 mph20%30.09 "Hg10 mi
4:00 PM91 °FSunny.2 mph20%30.07 "Hg10 mi
3:00 PM91 °FSunny.2 mph20%30.09 "Hg10 mi
2:00 PM91 °FSunny.6 mph23%30.12 "Hg10 mi
1:00 PM90 °FSunny.6 mph27%30.15 "Hg10 mi
Weather by CustomWeather, © 2015

See weather overviewHow to use our weather pages